Regional Weather Roundup
Issued by NWS

Home | Current Version | Previous Version | Graphics & Text | Print | Product List | Glossary On
Versions: 1 2 3 4 5 6 7 8 9 10 11 12 13 14 15 16 17 18 19 20 21 22 23 24 25 26 27 28 29 30 31 32 33 34 35 36 37 38 39 40 41 42 43 44 45 46 47 48 49 50
052
ASUS43 KMKX 221910
RWRWI

WISCONSIN REGIONAL WEATHER ROUNDUP
NATIONAL WEATHER SERVICE MILWAUKEE/SULLIVAN WI
200 PM CDT FRI MAY 22 2015

NOTE: "FAIR" INDICATES FEW OR NO CLOUDS BELOW 12,000 FEET WITH NO
SIGNIFICANT WEATHER AND/OR OBSTRUCTIONS TO VISIBILITY.

WIZ001-002-006>008-014>016-023>028-222000-
NORTHWEST WISCONSIN

CITY           SKY/WX    TMP DP  RH WIND       PRES   REMARKS
SUPERIOR ARPT  SUNNY     59  41  51 NE8       30.20F
ASHLAND        SUNNY     68  35  29 N6        30.22S
HAYWARD        SUNNY     69  27  20 VRB5      30.21F
SIREN          SUNNY     69  30  24 CALM      30.22S
CUMBERLAND     SUNNY     64  30  27 SE5       30.22F
RICE LAKE      SUNNY     67  31  25 W3        30.23F
CHETEK         SUNNY     66  33  28 CALM      30.22F
LADYSMITH      SUNNY     66  33  28 W3        30.23F
EAU CLAIRE     SUNNY     69  32  25 CALM      30.22S
MENOMONIE      SUNNY     69  32  25 SE3       30.22F
NEW RICHMOND   SUNNY     68  30  24 CALM      30.23S
OSCEOLA        SUNNY     68  33  27 SW6       30.25S
$$

WIZ003>005-009-010-017-018-222000-
NORTH CENTRAL WISCONSIN

CITY           SKY/WX    TMP DP  RH WIND       PRES   REMARKS
MANITOWISH WTR SUNNY     62  28  27 NW12      30.22R
ARBOR VITAE    SUNNY     63  26  25 NW10      30.22S
WOODRUFF       SUNNY     63  26  25 NW10      30.22S
RHINELANDER    SUNNY     65  25  22 N9        30.22S
EAGLE RIVER    SUNNY     64  16  15 NW7G17    30.21R
LAND O LAKES   SUNNY     64  15  15 N7        30.22S
PHILLIPS       SUNNY     64  31  29 NE6       30.21S
TOMAHAWK       SUNNY     64  29  26 CALM      30.22S
MEDFORD        SUNNY     65  34  31 CALM      30.22F
MERRILL        SUNNY     65  31  28 CALM      30.22S
$$

WIZ029-030-035-036-043>047-222000-
CENTRAL WISCONSIN

CITY           SKY/WX    TMP DP  RH WIND       PRES   REMARKS
WAUSAU         SUNNY     66  33  29 S3        30.21S
MOSINEE        SUNNY     64  36  34 NW8       30.23F
MARSHFIELD     SUNNY     68  34  28 W9        30.23S
STEVENS POINT  SUNNY     65  31  28 SW9       30.23S
WAUPACA        SUNNY     70  26  19 CALM      30.22F
WAUTOMA        NOT AVBL
WISC RAPIDS    SUNNY     70  28  21 VRB5      30.24S
CAMP DOUGLAS   NOT AVBL
$$

WIZ011>013-019>022-031-037>040-048>050-222000-
NORTHEAST WISCONSIN

CITY           SKY/WX    TMP DP  RH WIND       PRES   REMARKS
ANTIGO         SUNNY     63  31  29 NW7       30.22S
SHAWANO        SUNNY     69  31  24 W10G17    30.21F
OCONTO         SUNNY     60  30  32 SE12      30.23S
STURGEON BAY   SUNNY     54  32  43 SE10      30.29R
GREEN BAY      SUNNY     65  30  27 SW7       30.24S
MANITOWOC      NOT AVBL
APPLETON       SUNNY     63  30  29 SE8       30.24S
CLINTONVILLE   SUNNY     68  28  22 SW7       30.22F
OSHKOSH        SUNNY     64  39  39 E9        30.23F
$$

WIZ032>034-041-042-053>061-222000-
SOUTHWEST WISCONSIN

CITY           SKY/WX    TMP DP  RH WIND       PRES   REMARKS
LA CROSSE      SUNNY     74  37  26 VRB5      30.21S
SPARTA         SUNNY     70  30  22 W3        30.22S
VIROQUA        SUNNY     70  33  26 SW7       30.22S
BOSCOBEL       SUNNY     74  36  25 CALM      30.21S
PRAIRIE DU CHI SUNNY     72  28  20 CALM      30.21S
PLATTEVILLE    SUNNY     70  35  27 SE5       30.22S
$$

WIZ056-057-062-063-064-067-068-222000-
SOUTH CENTRAL WISCONSIN

CITY           SKY/WX    TMP DP  RH WIND       PRES   REMARKS
REEDSBURG      SUNNY     69  38  32 W6        30.22S
BARABOO/DELLS  SUNNY     69  31  23 CALM      30.22S
LONE ROCK      NOT AVBL
MINERAL POINT  SUNNY     72  30  21 CALM      30.22S
MADISON        MOSUNNY   70  35  27 VRB5      30.22F
MIDDLETON      SUNNY     71  27  19 CALM      30.22F
WATERTOWN      SUNNY     67  35  31 CALM      30.23S
MONROE         SUNNY     70  36  28 W6        30.22S
JANESVILLE     SUNNY     72  34  25 E5        30.21S
$$

WIZ051-052-058>065-066-070>072-222000-
SOUTHEAST WISCONSIN

CITY           SKY/WX    TMP DP  RH WIND       PRES   REMARKS
MILWAUKEE      SUNNY     55  31  39 E8        30.28R
WAUKESHA       SUNNY     63  34  34 S6        30.25F
MILWAUKEE/TIMM SUNNY     61  21  21 E9        30.26F
RACINE         SUNNY     57  31  37 NE8       30.29R
BURLINGTON     SUNNY     64  31  28 CALM      30.24S
KENOSHA        SUNNY     59  31  34 E8        30.27S
FOND DU LAC    SUNNY     66  31  27 CALM      30.23F
SHEBOYGAN      SUNNY     59  29  31 SE10      30.26S
WEST BEND      SUNNY     64  32  29 S5        30.24F
JUNEAU         SUNNY     65  34  31 CALM      30.24S
$$

LSZ147-162-222000-
LAKE SUPERIOR

STATION/POSITION TIME  TEMP    WIND        PRES    WAVE
                       AIR SEA DIR/SP/G            HT/PER
                 (UTC) (F)     (DEG/KT/KT) (MB)    (FT/S)
W MID LAKE BUOY  1750   38 37  120/  6/  6   N/A     0
DEVILS ISLAND    1800   43     100/  4/  5   N/A
PORT WING        1800   46      20/  7/  7   N/A
SAXON HARBOR     1840   53      CALM  /  3   N/A
$$

LMZ867-665-643>646-222000-
LAKE MICHIGAN

STATION/POSITION TIME  TEMP    WIND        PRES    WAVE
                       AIR SEA DIR/SP/G            HT/PER
                 (UTC) (F)     (DEG/KT/KT) (MB)    (FT/S)
CHAMBERS ISLAND  1800   52      80/  8/ 12   N/A
N MID LAKE BUOY  1750   38 36  150/  4/  6   N/A     1
NORTHPORT PIER   1800   44     110/ 10/ 12   N/A
SISTER BAY       1817   54     150/ 12/ 14   N/A
KEWAUNEE LAKESHO 1800   45     120/  4/  8   N/A
SHEBOYGAN LAKESH 1800          120/ 10/ 12   N/A
PORT WASHINGTON  1800   48     120/  4/  5   N/A
ATWATER BUOY     1800   45 45   60/  4/  6   N/A
MILWAUKEE LAKESH 1800   45      50/  7/  7   N/A
S MID LAKE BUOY  1750   41 38  340/  6/  6   N/A     1
$$

TC  - TEMPERATURE IN CELSIUS
VSB - VISIBILITY IN STATUTE MILES
WCI - WIND CHILL INDEX
HX  - HEAT INDEX




USA.gov is the U.S. government's official web portal to all federal, state and local government web resources and services.